Tracking 28081 objects as of 26-Sep-2023
HD Live streaming from Space Station
objects crossing your sky now

STARLINK-5501

Track STARLINK-5501 now!
10-day predictions
STARLINK-5501 is classified as:


NORAD ID: 55648
Int'l Code: 2023-021W
Perigee: 576.9 km
Apogee: 581.5 km
Inclination: 70.0 °
Period: 96.1 minutes
Semi major axis: 6950 km
RCS: Unknown
Launch date: February 17, 2023
Source: United States (US)
Launch site: AIR FORCE WESTERN TEST RANGE (AFWTR)
Your satellite tracking list
Your tracking list is empty




NASA's NSSDC Master Catalog

Two Line Element Set (TLE):
1 55648U 23021W   23268.79179926 -.00000096  00000-0 -23467-6 0  9992
2 55648  69.9985 283.3649 0003262 270.0116  90.0669 14.98330739 34599
Source of the keplerian elements: AFSPC